Simultaneous Nadir Overpasses (SNOs) Predictions

Prediction of SNOs between AQUA and GOES-15 Satellite Orbit:

Table of predicted SNOs for the next 14.0 days since TLE Epoch: 5/29/2021
Index Date Time (AQUA) AQUA Lat,Lon GOES-15 Lat,Lon Distance(km) Time Diff (sec)
1 05/30/2021 10:00:52 -0.40,-126.42 0.06,-128.46 232.44 80
2 05/30/2021 22:22:16 -0.73,-131.61 -0.06,-128.39 365.30 80
3 06/01/2021 22:10:05 -0.09,-128.65 -0.07,-128.41 26.80 80
4 06/03/2021 21:57:54 0.54,-125.70 -0.07,-128.43 311.87 80
5 06/04/2021 10:19:10 0.54,-130.86 0.07,-128.52 265.62 80
6 06/06/2021 10:06:59 -0.09,-127.90 0.07,-128.54 72.42 80
7 06/08/2021 09:54:47 -0.67,-124.94 0.07,-128.55 409.77 80
8 06/08/2021 22:16:11 -0.42,-130.13 -0.06,-128.47 189.22 80
9 06/10/2021 22:04:00 0.23,-127.18 -0.06,-128.47 147.47 80
10 06/11/2021 10:25:16 0.87,-132.34 0.05,-128.56 429.67 80
